カタログに戻る

DELTA 1 DEB

運用中SSO
NORAD 12183·DEBRIS·🇺🇸 United States

打ち上げ Mar 5, 1978 から Vandenberg Space Force Base

Loading…

次のパス (今後24時間)

TLE

最新Source: Space-Track

元期: Sep 14, 2026, 08:32 UTC

1 12183U 78026Y   26257.35585160  .00000206  00000-0  12756-3 0  9995
2 12183  98.9428 292.1415 0035026 271.1234 101.0103 14.15714908348873

AllMySatでDELTA 1 DEBをリアルタイム追跡

Download on the App Store